Погода в Атланте

США     33°44′55″N   84°23′32″W
темп.,
°C
ветер,
м/с
пор.,
м/с
влажн.,
%
обл.,
%
осадки,
мм/ч
давл.,
гПа
погр.,
м
31 июля, сб
сб3123:00+29зсз376699 0.0 1015477
02:00+27зсз3672100 0.0 1015313
05:00+26зсз2477100 0.0 1014211
08:00+26сз247384 0.0 1015269
11:00+31сз344912 0.0 10161186
14:00+35сз3336100 0.0 10142325
17:00+36сз443066 0.0 10132602
20:00+33зсз4543100 0.0 10131387
1 августа, вс
вс123:00+30сз375815 0.0 1014490
02:00+28сз2659100 0.0 1013310
05:00+26сз276568 0.0 1013289
08:00+26зсз367388 0.0 1015306
11:00+30зсз475833 0.6 10151164
14:00+34зсз36384 0.8 10141810
17:00+36сз583457 0.0 10122992
20:00+31сз575151 0.0 10131181
2 августа, пн
пн223:00+27зюз237188 1.0 1015406
02:00+23зсз388488 2.4 1015322
05:00+23сз2485100 0.2 1014255
08:00+24сз2382100 0.2 1015313
11:00+25сз2272100 0.3 1015482
14:00+28з2360100 0.4 1014930
17:00+24ссв138082 4.4 1013277
20:00+26з2368100 4.4 1013261
3 августа, вт
вт323:00+24ююз2575100 0.1 1014155
02:00+22юз248353 0.3 1012190
05:00+21юз24890 0.0 1012191
08:00+21зюз22854 0.0 1013241
11:00+27сз23520 0.0 1014823
14:00+32сз22346 0.0 10132327
17:00+33зсз322961 0.0 10112820
20:00+28всв344963 0.1 1013680
4 августа, ср
ср423:00+24всв47702 0.6 1015484
02:00+21всв488728 0.8 1015400
05:00+20в5986100 0.3 1015515
08:00+19в4109194 1.4 1017521
11:00+20в478593 1.3 1018634
14:00+28в345125 1.3 10161385
17:00+27юв445720 0.8 10151243
20:00+24вюв35760 2.2 1015354